[Date Prev][Date Next][Thread Prev][Thread Next] - [Date Index][Thread Index][Author Index]

2 Line ISS Keps 1-8



ISS
1 25544U 98067A   02008.19643378  .00067693  00000-0  74452-3 0  9313
2 25544  51.6391 136.9957 0002406  75.5135 359.1745 15.62524969179072


----
Via the sarex mailing list at AMSAT.ORG courtesy of AMSAT-NA.
To unsubscribe, send "unsubscribe sarex" to Majordomo@amsat.org



AMSAT Top AMSAT Home